Regional Weather Roundup
Issued by NWS

Home | Current Version | Previous Version | Text Only | Print | Product List | Glossary Off
Versions: 1 2 3 4 5 6 7 8 9 10 11 12 13 14 15 16 17 18 19 20 21 22 23 24 25 26 27 28 29 30 31 32 33 34 35 36 37 38 39 40 41 42 43 44 45 46 47 48 49 50

000
ASUS43 KLOT 222306
RWRIL

ILLINOIS REGIONAL WEATHER ROUNDUP
NATIONAL WEATHER SERVICE CHICAGO/ROMEOVILLE IL
600 PM CDT TUE APR 22 2014

NOTE: "FAIR" INDICATES FEW OR NO CLOUDS BELOW 12,000 FEET WITH NO
SIGNIFICANT WEATHER AND/OR OBSTRUCTIONS TO VISIBILITY.

* THESE STATIONS ARE NOT UNDER NWS QUALITY CONTROL. THEY ALSO MAY NOT
  REPORT WEATHER SUCH AS PRECIPITATION OR FOG.

ILZ001-002-007-009-015-016-024-230000-
NORTHWEST ILLINOIS

CITY           SKY/WX    TMP DP  RH WIND       PRES   REMARKS
MOLINE         MOSUNNY   63  25  23 N9        29.98F
STERLING*      PTSUNNY   61  30  31 N16       29.99R
SAVANNA*       MOSUNNY   60  24  25 NW13      29.99F
$$

ILZ003-004-008-010-011-017-018-230000-
NORTH CENTRAL ILLINOIS

CITY           SKY/WX    TMP DP  RH WIND       PRES   REMARKS
ROCKFORD       PTSUNNY   59  26  28 N13       29.99S
FREEPORT*      MOSUNNY   56  20  24 N10       30.00S
ROCHELLE*      PTSUNNY   58  26  28 N12       29.98S
DE KALB*       MOSUNNY   56  25  30 N17G28    29.98R
PERU*          PTSUNNY   61  30  31 NW17G23   29.98R
$$

ILZ005-006-012>014-019>023-230000-
NORTHEAST ILLINOIS

CITY           SKY/WX    TMP DP  RH WIND       PRES   REMARKS
CHICAGO-OHARE  MOSUNNY   50  29  44 E12       29.99R
CHICAGO-MIDWAY MOSUNNY   47  31  53 E10       30.00R
AURORA         MOSUNNY   59  26  28 N20       29.97R
LANSING*       SUNNY     46  31  54 NE10      30.00R
JOLIET*        MOSUNNY   59  25  26 N12G21    29.96S
WAUKEGAN       SUNNY     43  28  55 NE12      30.00R
DUPAGE AIRPORT MOSUNNY   58  26  29 N20G26    29.96R
KANKAKEE*      SUNNY     59  32  35 NW8       29.96S
WHEELING       SUNNY     47  30  51 NE12      30.01R
MORRIS*        MOSUNNY   61  20  20 NW9G17    29.96R
ROMEOVILLE*    MOSUNNY   52  32  46 E16       29.97R
NORTHERLY ISL    N/A     43  33  68 E9          N/A
$$

LMZ740>746-230000-
SOUTHERN LAKE MICHIGAN

STATION/POSITION SKY/WX   TEMP    WIND        PRES    VSBY  WAVE
                          AIR SEA DIR/SP/G                  HT/PER
                          (F)     (DEG/KT/KT) (MB)    (MI)  (FT/S)
WAUKEGAN HARBOR            40      90/  4/  6 1017.6S
HARRISON CRIB              40      70/ 10/ 12   N/A
BURNHAM HARBOR             42      60/  9/ 10   N/A
CALUMET HARBOR             42      50/ 10/ 13 1016.8S
MICHIGAN CITY              41      30/ 16/ 18   N/A
$$

ILZ025>027-034>036-040-047-049-050-058-095>099-230000-
WEST-CENTRAL ILLINOIS

CITY           SKY/WX    TMP DP  RH WIND       PRES   REMARKS
QUINCY         SUNNY     64  32  30 N10       30.01S
GALESBURG*     SUNNY     62  31  31 NW15G22   29.99S
MACOMB*        SUNNY     64  28  26 NW14      30.02S
JACKSONVILLE*  SUNNY     65  30  26 NW13      30.00S
PITTSFIELD*    SUNNY     65  31  27 NW10      30.01S
$$

ILZ028>032-037-038-041>044-048-051>054-059>061-230000-
CENTRAL ILLINOIS

CITY           SKY/WX    TMP DP  RH WIND       PRES   REMARKS
PONTIAC        PTSUNNY   63  30  29 NW13      29.97S
BLOOMINGTON    MOSUNNY   61  27  27 N15       29.98S
DECATUR        SUNNY     64  29  26 NW15G22   29.96F
PEORIA         SUNNY     64  28  25 NW12G20   29.98S
LACON*         MOSUNNY   62  29  29 N10G20    29.97S
LINCOLN*       MOSUNNY   66  27  23 N14       29.96F
SPRINGFIELD    SUNNY     66  28  24 NW15      29.98F
TAYLORVILLE    SUNNY     64  30  27 N10G20    29.97S
$$

ILZ033-039-045-046-055>057-062-063-230000-
EAST-CENTRAL ILLINOIS

CITY           SKY/WX    TMP DP  RH WIND       PRES   REMARKS
CHAMPAIGN      SUNNY     64  31  28 N15       29.95S
RANTOUL*       SUNNY     63  29  27 N13G20    29.97R
MATTOON        SUNNY     64  29  26 N20       29.94S
PARIS*         SUNNY     62  33  33 NW14G20   29.95S
$$

ILZ079-100>102-230000-
SOUTHWEST ILLINOIS

CITY           SKY/WX    TMP DP  RH WIND       PRES   REMARKS
ALTON          SUNNY     66  27  22 NW10      29.98F
BELLEVILLE     SUNNY     67  35  29 NW12      29.96F
CAHOKIA*       SUNNY     68  38  33 NW12      29.98F
SPARTA*        SUNNY     64  36  34 N12G17    29.99S
$$

ILZ064>066-069>071-074>076-080>082-084>086-088>090-092>094-230000-
SOUTH-CENTRAL ILLINOIS

CITY           SKY/WX    TMP DP  RH WIND       PRES   REMARKS
CARBONDALE     SUNNY     67  40  37 N12       29.97S
CAIRO*         SUNNY     74  36  25 N16       29.93S
MARION         SUNNY     68  37  32 N16       29.97S
MT. VERNON     SUNNY    N/A N/A N/A NW7       29.96F
CENTRALIA*       N/A     66  35  31 CALM      29.96F
SALEM*         SUNNY     67  39  36 N15       29.96S
METROPOLIS*    SUNNY     70  31  23 NW13      29.93R
$$

ILZ067-068-072-073-078-083-087-091-230000-
SOUTHEAST ILLINOIS

CITY           SKY/WX    TMP DP  RH WIND       PRES   REMARKS
FAIRFIELD*     SUNNY     66  37  34 NW8       29.95S
HARRISBURG*    SUNNY     67  36  31 NW7       29.96S
ROBINSON*      SUNNY     67  35  31 N16       29.94S
CARMI*         SUNNY     68  39  34 NW9       29.94S
$$

ABBREVIATIONS USED IN REMARKS
   TC - TEMPERATURE IN CELSIUS
  WCI - WIND CHILL INDEX
   HX - HEAT INDEX
  VSB - VISIBILITY
$$




USA.gov is the U.S. government's official web portal to all federal, state and local government web resources and services.